Regional Weather Roundup
Issued by NWS

Home | Current Version | Previous Version | Text Only | Print | Product List | Glossary On
Versions: 1 2 3 4 5 6 7 8 9 10 11 12 13 14 15 16 17 18 19 20 21 22 23 24 25 26 27 28 29 30 31 32 33 34 35 36 37 38 39 40 41 42 43 44 45 46 47 48 49 50
480
ASUS43 KLSX 231310
RWRMO

WEATHER SUMMARY FOR MISSOURI
NATIONAL WEATHER SERVICE SPRINGFIELD MO
800 AM CDT SAT JUL 23 2016

NOTE: "FAIR" INDICATES FEW OR NO CLOUDS BELOW 12,000 FEET WITH NO
       SIGNIFICANT WEATHER AND/OR OBSTRUCTIONS TO VISIBILITY.
       CURRENT SKY AND/OR WEATHER CONDITIONS ARE NOT AVAILABLE FOR
       CHILLICOTHE AND FARMINGTON.

MOZ001>031-035>038-043-044-053-054-231400-
...NORTHERN AND WESTERN MISSOURI...

CITY           SKY/WX    TMP DP  RH WIND       PRES   REMARKS
KANSAS CTY INT PTSUNNY   83  74  74 S10       29.96R
KANSAS C DTWN  CLOUDY    84  73  69 S7        29.95R HX  90
LEE`S SUMMIT   SUNNY     83  73  72 S12       29.98R
ST JOSEPH      CLOUDY    81  73  76 S7        29.93S
CHILLICOTHE      N/A     81  77  88 S5        29.95S
KIRKSVILLE     CLOUDY    80  76  87 S9        29.97F

$$
MOZ066>068-077>081-088>096-101>105-231400-
...SOUTHWEST MISSOURI...

CITY           SKY/WX    TMP DP  RH WIND       PRES   REMARKS
SPRINGFIELD    SUNNY     81  75  82 S6        30.02R
JOPLIN         SUNNY     83  74  74 S7        30.00R
BRANSON        SUNNY     81  75  83 CALM      30.04R

$$
MOZ032>034-039>042-045>050-055>058-069>072-231400-
...CENTRAL MISSOURI...

CITY           SKY/WX    TMP DP  RH WIND       PRES   REMARKS
COLUMBIA       SUNNY     80  76  87 S6        29.99S
JEFFERSON CITY MOSUNNY   79  76  90 SE3       29.98S
ROLLA          SUNNY     80  70  71 SW9       30.01R
SEDALIA        SUNNY     83  76  79 S9        29.99S HX  91
WHITEMAN AFB   MOSUNNY   81  80  96 S8        29.96S HX  90
OSAGE BEACH    SUNNY     79  75  87 SE3       30.01R FOG

$$
MOZ051-052-059>065-231400-
...EAST CENTRAL MISSOURI...

CITY           SKY/WX    TMP DP  RH WIND       PRES   REMARKS
ST LOUIS INTL  MOSUNNY   82  72  71 S7        30.01R
SPIRIT OF STL  MOSUNNY   80  75  84 SE3       29.99R
ST CHARLES     SUNNY     79  76  90 S3        29.99R

$$
MOZ072>076-082>087-097>100-106>115-231400-
...SOUTH CENTRAL AND SOUTHEAST MISSOURI...

CITY           SKY/WX    TMP DP  RH WIND       PRES   REMARKS
CAPE GIRARDEAU MOSUNNY   77  75  93 CALM      29.99R FOG
FARMINGTON     PTSUNNY   75  73  93 CALM      30.03S
POPLAR BLUFF   MOSUNNY   78  75  90 NE6       29.99R
WEST PLAINS    MOSUNNY   80  75  84 CALM      30.05S

$$




USA.gov is the U.S. government's official web portal to all federal, state and local government web resources and services.